Regional Weather Roundup
Issued by NWS

Home | Current Version | Previous Version | Graphics & Text | Print | Product List | Glossary Off
Versions: 1 2 3 4 5 6 7 8 9 10 11 12 13 14 15 16 17 18 19 20 21 22 23 24 25 26 27 28 29 30 31 32 33 34 35 36 37 38 39 40 41 42 43 44 45 46 47 48 49 50

000
ASUS43 KMKX 231621
RWRWI

WISCONSIN REGIONAL WEATHER ROUNDUP
NATIONAL WEATHER SERVICE MILWAUKEE/SULLIVAN WI
1000 AM CST SUN NOV 23 2014

NOTE: "FAIR" INDICATES FEW OR NO CLOUDS BELOW 12,000 FEET WITH NO
SIGNIFICANT WEATHER AND/OR OBSTRUCTIONS TO VISIBILITY.

WIZ001-002-006>008-014>016-023>028-231700-
NORTHWEST WISCONSIN

CITY           SKY/WX    TMP DP  RH WIND       PRES   REMARKS
SUPERIOR ARPT  FOG       37  37 100 CALM      29.46S VSB<1/4
ASHLAND        CLOUDY    47  44  90 SW9       29.46R
HAYWARD        LGT RAIN  44  43  96 S10       29.46F VSB 1/4
SIREN          FOG       45  45  99 S5        29.45F VSB 3/4
CUMBERLAND     FOG       41  39  93 S7        29.47S VSB<1/4
RICE LAKE      FOG       41  41  98 SE5       29.49F VSB<1/4
CHETEK         FOG       45  45 100 SE6       29.48F VSB<1/4
LADYSMITH      FOG       45  44  97 SE6       29.50F VSB<1/4
EAU CLAIRE     CLOUDY    48  46  93 S7        29.48F
MENOMONIE      CLOUDY    50  49  96 S6        29.48F FOG
NEW RICHMOND   FOG       46  46 100 SE3       29.46F VSB<1/4
OSCEOLA        FOG       43  43 100 S3        29.48F VSB<1/4
$$

WIZ003>005-009-010-017-018-231700-
NORTH CENTRAL WISCONSIN

CITY           SKY/WX    TMP DP  RH WIND       PRES   REMARKS
MANITOWISH WTR FOG       42  42 100 S9        29.50S VSB<1/4
ARBOR VITAE    DRZL/FOG  44  42  96 S8        29.51F VSB<1/4
WOODRUFF       DRZL/FOG  44  42  96 S8        29.51F VSB<1/4
RHINELANDER    FOG       43  43 100 S8        29.54S VSB 1/4
EAGLE RIVER    DRZL/FOG  43  43 100 S7        29.52S VSB 1/4
LAND O LAKES   FOG       44  44 100 S7        29.52S VSB 1/4
PHILLIPS       FOG       43  43 100 S9        29.50S VSB<1/4
TOMAHAWK       FOG       44  43  97 CALM      29.53F VSB 1/4
MEDFORD        FOG       41  41 100 S8        29.53F VSB<1/4
MERRILL        FOG       45  45 100 S3        29.54F VSB 1/4
$$

WIZ029-030-035-036-043>047-231700-
CENTRAL WISCONSIN

CITY           SKY/WX    TMP DP  RH WIND       PRES   REMARKS
WAUSAU         FOG       44  44 100 S12       29.53F VSB 1/4
MOSINEE        FOG       45  45 100 S8        29.57S VSB 1/8
MARSHFIELD     FOG       46  46 100 S9        29.54F VSB<1/4
STEVENS POINT  FOG       45  45 100 S8        29.57F VSB 1
WAUPACA        CLOUDY    50  49  96 S6        29.59F FOG
WAUTOMA        CLOUDY    50  49  96 S10       29.60F FOG
WISC RAPIDS    CLOUDY    48  46  93 S7        29.57F FOG
CAMP DOUGLAS   CLOUDY    50  50 100 S7        29.56F
$$

WIZ011>013-019>022-031-037>040-048>050-231700-
NORTHEAST WISCONSIN

CITY           SKY/WX    TMP DP  RH WIND       PRES   REMARKS
ANTIGO         FOG       39  39 100 S7        29.56F VSB<1/4 WCI  34
SHAWANO        CLOUDY    49  48  95 S6        29.59F FOG
OCONTO         CLOUDY    43  43 100 S6        29.61F
STURGEON BAY   CLOUDY    45  43  93 S17       29.63F VSB 1
GREEN BAY      CLOUDY    49  47  93 S10       29.60F FOG
MANITOWOC      CLOUDY    45  45 100 S20       29.65S FOG
APPLETON         N/A     46  46 100 S10       29.61F FOG
CLINTONVILLE   CLOUDY    46  46 100 S8        29.59F FOG
OSHKOSH        CLOUDY    49  47  93 S16       29.62F FOG
$$

WIZ032>034-041-042-053>061-231700-
SOUTHWEST WISCONSIN

CITY           SKY/WX    TMP DP  RH WIND       PRES   REMARKS
LA CROSSE      CLOUDY    51  49  92 S8        29.52F
SPARTA         CLOUDY    50  49  95 S8        29.55F
VIROQUA        CLOUDY    49  49 100 S9        29.55S VSB 1
BOSCOBEL       CLOUDY    53  49  86 S12G20    29.58F
PRAIRIE DU CHI CLOUDY    50  47  90 SE8       29.56S FOG
PLATTEVILLE    CLOUDY    49  48  97 SE12      29.60F
$$

WIZ056-057-062-063-064-067-068-231700-
SOUTH CENTRAL WISCONSIN

CITY           SKY/WX    TMP DP  RH WIND       PRES   REMARKS
REEDSBURG      CLOUDY    49  49  97 S5        29.58F FOG
BARABOO/DELLS  CLOUDY    49  47  94 S9        29.59F FOG
LONE ROCK      CLOUDY    55  48  77 S16G22    29.60F
MINERAL POINT  RAIN      50  46  87 S13       29.60S
MADISON        LGT RAIN  50  47  89 S12       29.63S FOG
MIDDLETON      CLOUDY    50  49  97 S10G16    29.63R
WATERTOWN      CLOUDY    47  47  98 S9G21     29.64S
MONROE         RAIN      46  45  93 S15       29.62F
JANESVILLE     RAIN      48  46  93 S8        29.65F
$$

WIZ051-052-058>065-066-070>072-231700-
SOUTHEAST WISCONSIN

CITY           SKY/WX    TMP DP  RH WIND       PRES   REMARKS
MILWAUKEE      CLOUDY    50  44  80 S15       29.68F
WAUKESHA       LGT RAIN  46  46 100 S12       29.67F FOG
MILWAUKEE/TIMM PTSUNNY   50  43  76 S12G17    29.67F
RACINE         LGT RAIN  50  45  83 S12       29.71F
BURLINGTON     LGT RAIN  46  45  96 S7        29.68F
KENOSHA        CLOUDY    49  46  90 S10       29.69F
FOND DU LAC    CLOUDY    50  46  86 S13G21    29.62F FOG
SHEBOYGAN      CLOUDY    47  44  90 S12       29.65S FOG
WEST BEND      CLOUDY    50  43  76 S7G17     29.65S
JUNEAU         CLOUDY    48  46  95 S16       29.64F FOG
$$

LSZ147-162-231700-
LAKE SUPERIOR

STATION/POSITION TIME  TEMP    WIND        PRES    WAVE
                       AIR SEA DIR/SP/G            HT/PER
                 (UTC) (F)     (DEG/KT/KT) (MB)    (FT/S)
DEVILS ISLAND    1600   42     210/  4/  4  997.6R
PORT WING        1500   36      CALM  /  2  997.6R
SAXON HARBOR     1500   50     190/  5/ 12  997.3
$$

LMZ867-665-643>646-231700-
LAKE MICHIGAN

STATION/POSITION TIME  TEMP    WIND        PRES    WAVE
                       AIR SEA DIR/SP/G            HT/PER
                 (UTC) (F)     (DEG/KT/KT) (MB)    (FT/S)
CHAMBERS ISLAND  1500   45     160/  8/ 17 1004.1R
N MID LAKE BUOY  1550   45 42  190/ 23/ 27 1004.0F   6/ 6
NORTHPORT PIER   1500   44     170/  6/ 15 1004.1S
SISTER BAY       1543          190/ 23/ 32   N/A
ALGOMA LAKESHORE 1443          220/ 13/ 15   N/A
KEWAUNEE LAKESHO 1600   40     180/ 12/ 13 1003.1F
SHEBOYGAN LAKESH 1600   44 39  180/ 16/ 17 1004.5F
PORT WASHINGTON  1500   43     200/  6/  8 1005.8F
ATWATER BUOY     1600   50      CALM  /  4 1006.7F
MILWAUKEE LAKESH 1600   49     190/ 14/ 17   N/A
S MID LAKE BUOY  1550   45 42  170/ 14/ 16 1007.2F   2/ 5
KENOSHA   LAKESH 1600   44     180/ 10/ 15 1006.1F
$$

TC  - TEMPERATURE IN CELSIUS
VSB - VISIBILITY IN STATUTE MILES
WCI - WIND CHILL INDEX
HX  - HEAT INDEX



USA.gov is the U.S. government's official web portal to all federal, state and local government web resources and services.